SDM6008 URSS-URWW

Flight info

Callsign SDM6008
Flight time 1h 44m
Altitude 33000
Route IRGID A944 BEMES DCT DETIR/K0856F340 B945 UP N50 SL
Aircraft B738/M-SDE2E3FGHIRWXY/LB1

Departure

Time 2026-05-04 12:36
Airport Sochi International Airport (URSS)

Arrival

Time 2026-05-04 14:20
Airport Volgograd International Airport (URWW)
Time Latitude Longitude Altitude Speed Heading
2026-05-04 12:33 43.44980 39.95601 92 ft 0 kts 243°
2026-05-04 12:34 43.44979 39.95598 90 ft 1 kts 243°
2026-05-04 12:34 43.44974 39.95586 89 ft 2 kts 243°
2026-05-04 12:34 43.44967 39.95565 90 ft 3 kts 243°
2026-05-04 12:35 43.44957 39.95538 89 ft 4 kts 243°
2026-05-04 12:35 43.44941 39.95491 89 ft 10 kts 245°
2026-05-04 12:35 43.44830 39.95164 83 ft 74 kts 245°
2026-05-04 12:35 43.44514 39.94237 74 ft 137 kts 245°
2026-05-04 12:36 43.44053 39.92868 398 ft 164 kts 246°
2026-05-04 12:36 43.43605 39.91405 1240 ft 165 kts 257°
2026-05-04 12:36 43.43393 39.89816 2056 ft 169 kts 262°
2026-05-04 12:36 43.43175 39.88205 2798 ft 174 kts 259°
2026-05-04 12:37 43.42925 39.86576 3520 ft 179 kts 257°
2026-05-04 12:37 43.42635 39.84776 3830 ft 206 kts 257°
2026-05-04 12:37 43.42299 39.82741 4023 ft 230 kts 257°
2026-05-04 12:37 43.41927 39.80539 4455 ft 241 kts 256°
2026-05-04 12:38 43.41523 39.78193 4800 ft 262 kts 256°
2026-05-04 12:38 43.41090 39.75707 5469 ft 271 kts 255°
2026-05-04 12:38 43.40644 39.73174 6299 ft 274 kts 254°
2026-05-04 12:38 43.40190 39.70609 7128 ft 276 kts 254°
2026-05-04 12:39 43.39741 39.68042 8010 ft 277 kts 256°
2026-05-04 12:39 43.39748 39.65370 8815 ft 286 kts 279°
2026-05-04 12:39 43.40541 39.62854 9568 ft 298 kts 302°
2026-05-04 12:39 43.42046 39.60822 10237 ft 311 kts 325°
2026-05-04 12:40 43.44058 39.59450 10507 ft 337 kts 336°
2026-05-04 12:40 43.46327 39.58225 10688 ft 361 kts 338°
2026-05-04 12:40 43.48720 39.56995 11063 ft 375 kts 338°
2026-05-04 12:40 43.51207 39.55702 11699 ft 381 kts 338°
2026-05-04 12:41 43.53693 39.54379 12408 ft 385 kts 338°
2026-05-04 12:41 43.56199 39.53017 13096 ft 390 kts 338°
2026-05-04 12:41 43.58699 39.51646 13742 ft 394 kts 338°
2026-05-04 12:41 43.61273 39.50276 14353 ft 398 kts 343°
2026-05-04 12:42 43.64012 39.49787 14991 ft 398 kts
2026-05-04 12:42 43.66706 39.50504 15714 ft 393 kts 21°
2026-05-04 12:42 43.69206 39.51808 16383 ft 391 kts 31°
2026-05-04 12:42 43.71306 39.54107 17013 ft 384 kts 53°
2026-05-04 12:43 43.72371 39.56151 17495 ft 379 kts 64°
2026-05-04 12:43 43.73365 39.59489 18142 ft 375 kts 79°
2026-05-04 12:43 43.73926 39.63010 18677 ft 376 kts 81°
2026-05-04 12:43 43.74589 39.67740 19373 ft 380 kts 82°
2026-05-04 12:44 43.74927 39.70166 19729 ft 382 kts 82°
2026-05-04 12:44 43.75443 39.73780 20260 ft 384 kts 81°
2026-05-04 12:44 43.75975 39.77422 20786 ft 387 kts 81°
2026-05-04 12:44 43.76519 39.81080 21283 ft 390 kts 81°
2026-05-04 12:45 43.77064 39.84718 21804 ft 392 kts 81°
2026-05-04 12:45 43.77620 39.88434 22231 ft 396 kts 81°
2026-05-04 12:45 43.78175 39.92181 22731 ft 398 kts 81°
2026-05-04 12:45 43.78690 39.95951 23258 ft 400 kts 82°
2026-05-04 12:46 43.79179 39.99747 23665 ft 403 kts 82°
2026-05-04 12:46 43.79664 40.03583 24049 ft 406 kts 82°
2026-05-04 12:46 43.80151 40.07443 24422 ft 408 kts 82°
2026-05-04 12:46 43.80642 40.11324 24794 ft 410 kts 82°
2026-05-04 12:47 43.81139 40.15227 25154 ft 413 kts 82°
2026-05-04 12:47 43.81640 40.19163 25494 ft 416 kts 82°
2026-05-04 12:47 43.82144 40.23126 25821 ft 419 kts 82°
2026-05-04 12:47 43.82652 40.27107 26182 ft 421 kts 82°
2026-05-04 12:48 43.83160 40.31111 26535 ft 423 kts 82°
2026-05-04 12:48 43.83662 40.35088 26897 ft 425 kts 82°
2026-05-04 12:48 43.84172 40.39136 27228 ft 428 kts 82°
2026-05-04 12:48 43.84686 40.43232 27532 ft 431 kts 82°
2026-05-04 12:49 43.85200 40.47340 27853 ft 434 kts 82°
2026-05-04 12:49 43.85717 40.51475 28184 ft 436 kts 82°
2026-05-04 12:49 43.86237 40.55644 28514 ft 439 kts 82°
2026-05-04 12:49 43.86756 40.59824 28826 ft 441 kts 82°
2026-05-04 12:50 43.87278 40.64036 29096 ft 443 kts 82°
2026-05-04 12:50 43.87792 40.68203 29348 ft 446 kts 83°
2026-05-04 12:50 43.88270 40.72511 29596 ft 447 kts 86°
2026-05-04 12:50 43.88522 40.76758 29821 ft 448 kts 89°
2026-05-04 12:51 43.88697 40.81079 30093 ft 448 kts 89°
2026-05-04 12:51 43.88848 40.85389 30409 ft 447 kts 89°
2026-05-04 12:51 43.89001 40.89695 30704 ft 447 kts 89°
2026-05-04 12:51 43.89164 40.93999 30967 ft 447 kts 89°
2026-05-04 12:52 43.89335 40.98301 31253 ft 447 kts 89°
2026-05-04 12:52 43.89513 41.02599 31544 ft 447 kts 89°
2026-05-04 12:52 43.89694 41.06906 31806 ft 447 kts 89°
2026-05-04 12:52 43.89875 41.11214 32087 ft 447 kts 89°
2026-05-04 12:53 43.90051 41.15453 32376 ft 446 kts 90°
2026-05-04 12:53 43.90228 41.19747 32642 ft 446 kts 90°
2026-05-04 12:53 43.90403 41.24047 32873 ft 447 kts 90°
2026-05-04 12:53 43.90576 41.28351 33127 ft 447 kts 90°
2026-05-04 12:54 43.90747 41.32647 33411 ft 446 kts 90°
2026-05-04 12:54 43.90917 41.36931 33672 ft 445 kts 90°
2026-05-04 12:54 43.91084 41.41228 33904 ft 446 kts 90°
2026-05-04 12:54 43.91251 41.45521 34106 ft 446 kts 90°
2026-05-04 12:55 43.91414 41.49754 34298 ft 446 kts 90°
2026-05-04 12:55 43.91580 41.54121 34504 ft 446 kts 90°
2026-05-04 12:55 43.91739 41.58361 34680 ft 447 kts 90°
2026-05-04 12:55 43.91893 41.62672 34862 ft 447 kts 90°
2026-05-04 12:56 43.92047 41.67041 35052 ft 448 kts 90°
2026-05-04 12:56 43.92195 41.71315 35230 ft 448 kts 90°
2026-05-04 12:56 43.92343 41.75632 35391 ft 449 kts 90°
2026-05-04 12:56 43.92491 41.79997 35572 ft 449 kts 90°
2026-05-04 12:57 43.92636 41.84295 35736 ft 449 kts 90°
2026-05-04 12:57 43.92781 41.88627 35890 ft 450 kts 90°
2026-05-04 12:57 43.92925 41.92994 36056 ft 450 kts 90°
2026-05-04 12:58 43.92943 41.93551 36076 ft 450 kts 90°
2026-05-04 12:59 43.93050 41.96794 36190 ft 450 kts 90°
2026-05-04 12:59 43.93190 42.01129 36367 ft 450 kts 90°
2026-05-04 12:59 43.93329 42.05470 36522 ft 451 kts 90°
2026-05-04 12:59 43.93466 42.09816 36678 ft 451 kts 90°
2026-05-04 13:00 43.93602 42.14164 36825 ft 451 kts 90°
2026-05-04 13:00 43.93869 42.22901 36833 ft 454 kts 90°
2026-05-04 13:01 43.94130 42.31629 36842 ft 451 kts 90°
2026-05-04 13:01 43.94384 42.40306 36850 ft 449 kts 90°
2026-05-04 13:02 43.94629 42.48964 36858 ft 448 kts 90°
2026-05-04 13:02 43.94867 42.57563 36865 ft 448 kts 90°
2026-05-04 13:03 43.95069 42.66202 36887 ft 448 kts 92°
2026-05-04 13:03 43.95112 42.74865 36895 ft 449 kts 92°
2026-05-04 13:04 43.95119 42.83556 36905 ft 451 kts 92°
2026-05-04 13:04 43.95135 42.92232 36917 ft 453 kts 92°
2026-05-04 13:05 43.95157 43.01004 36925 ft 455 kts 92°
2026-05-04 13:05 43.95176 43.09804 36928 ft 456 kts 92°
2026-05-04 13:06 43.95189 43.18619 36927 ft 457 kts 92°
2026-05-04 13:06 43.95195 43.27455 36921 ft 458 kts 92°
2026-05-04 13:07 43.95193 43.36244 36923 ft 458 kts 92°
2026-05-04 13:07 43.95185 43.45088 36915 ft 458 kts 92°
2026-05-04 13:08 43.95169 43.53939 36924 ft 458 kts 92°
2026-05-04 13:08 43.95147 43.62783 36925 ft 457 kts 92°
2026-05-04 13:09 43.95118 43.71623 36920 ft 457 kts 92°
2026-05-04 13:09 43.95083 43.80437 36921 ft 457 kts 92°
2026-05-04 13:10 43.95041 43.89196 36921 ft 456 kts 93°
2026-05-04 13:10 43.94991 43.98005 36921 ft 456 kts 93°
2026-05-04 13:11 43.94936 44.06806 36917 ft 456 kts 93°
2026-05-04 13:11 43.94873 44.15611 36920 ft 456 kts 93°
2026-05-04 13:12 43.94803 44.24426 36918 ft 456 kts 93°
2026-05-04 13:12 43.94727 44.33230 36921 ft 456 kts 93°
2026-05-04 13:13 43.94645 44.42009 36921 ft 457 kts 94°
2026-05-04 13:13 43.94555 44.50839 36922 ft 458 kts 94°
2026-05-04 13:14 43.94458 44.59681 36922 ft 458 kts 94°
2026-05-04 13:14 43.94451 44.60297 36920 ft 458 kts 94°
2026-05-04 13:15 43.94430 44.62116 36923 ft 459 kts 94°
2026-05-04 13:15 43.94324 44.70985 36921 ft 459 kts 94°
2026-05-04 13:16 43.94211 44.79855 36924 ft 460 kts 94°
2026-05-04 13:16 43.94091 44.88746 36917 ft 461 kts 94°
2026-05-04 13:17 43.93965 44.97597 36920 ft 461 kts 94°
2026-05-04 13:17 43.93831 45.06509 36919 ft 462 kts 94°
2026-05-04 13:18 43.93694 45.15181 36916 ft 463 kts 94°
2026-05-04 13:18 43.93546 45.24123 36913 ft 463 kts 94°
2026-05-04 13:19 43.93391 45.33056 36916 ft 464 kts 94°
2026-05-04 13:19 43.93230 45.41946 36912 ft 464 kts 94°
2026-05-04 13:20 43.93061 45.50897 36913 ft 464 kts 94°
2026-05-04 13:20 43.92885 45.59848 36913 ft 464 kts 94°
2026-05-04 13:21 43.92702 45.68795 36908 ft 464 kts 95°
2026-05-04 13:21 43.92513 45.77753 36909 ft 464 kts 95°
2026-05-04 13:22 43.92584 45.86705 36900 ft 467 kts 83°
2026-05-04 13:22 43.94538 45.95316 36897 ft 473 kts 63°
2026-05-04 13:23 43.97861 46.03161 36901 ft 474 kts 60°
2026-05-04 13:23 44.01299 46.10979 36903 ft 474 kts 60°
2026-05-04 13:24 44.04691 46.18848 36899 ft 475 kts 61°
2026-05-04 13:24 44.08050 46.26766 36910 ft 475 kts 61°
2026-05-04 13:25 44.13071 46.38693 36900 ft 476 kts 61°
2026-05-04 13:25 44.16413 46.46653 36907 ft 476 kts 61°
2026-05-04 13:26 44.19750 46.54618 36897 ft 476 kts 61°
2026-05-04 13:26 44.23083 46.62594 36903 ft 476 kts 62°
2026-05-04 13:27 44.26412 46.70584 36905 ft 476 kts 62°
2026-05-04 13:27 44.29691 46.78479 36900 ft 476 kts 62°
2026-05-04 13:28 44.33023 46.86522 36894 ft 475 kts 62°
2026-05-04 13:28 44.36332 46.94533 36895 ft 475 kts 62°
2026-05-04 13:29 44.39630 47.02538 36892 ft 475 kts 62°
2026-05-04 13:29 44.42920 47.10548 36895 ft 475 kts 62°
2026-05-04 13:30 44.46204 47.18565 36895 ft 475 kts 62°
2026-05-04 13:30 44.48965 47.25215 36886 ft 476 kts 56°
2026-05-04 13:31 44.51221 47.28613 36894 ft 477 kts 37°
2026-05-04 13:31 44.54079 47.30944 36890 ft 477 kts 20°
2026-05-04 13:31 44.57265 47.32169 36904 ft 474 kts
2026-05-04 13:31 44.61601 47.32012 36919 ft 470 kts 351°
2026-05-04 13:32 44.67036 47.30886 36897 ft 471 kts 349°
2026-05-04 13:32 44.73500 47.29478 36897 ft 473 kts 349°
2026-05-04 13:33 44.80046 47.28153 36896 ft 475 kts 350°
2026-05-04 13:33 44.86611 47.26874 36897 ft 476 kts 351°
2026-05-04 13:34 44.93187 47.25593 36895 ft 477 kts 351°
2026-05-04 13:34 44.99766 47.24303 36896 ft 477 kts 351°
2026-05-04 13:35 45.09591 47.22376 36890 ft 477 kts 351°
2026-05-04 13:36 45.16165 47.21098 36895 ft 476 kts 351°
2026-05-04 13:36 45.22730 47.19818 36895 ft 475 kts 351°
2026-05-04 13:37 45.29277 47.18538 36900 ft 473 kts 351°
2026-05-04 13:37 45.35794 47.17259 36895 ft 472 kts 351°
2026-05-04 13:38 45.42250 47.15990 36900 ft 471 kts 351°
2026-05-04 13:38 45.48744 47.14710 36900 ft 470 kts 351°
2026-05-04 13:39 45.55226 47.13429 36896 ft 469 kts 351°
2026-05-04 13:39 45.61699 47.12147 36901 ft 469 kts 351°
2026-05-04 13:40 45.68163 47.10865 36901 ft 469 kts 351°
2026-05-04 13:40 45.74639 47.09593 36906 ft 470 kts 351°
2026-05-04 13:41 45.81119 47.08320 36910 ft 470 kts 351°
2026-05-04 13:41 45.87606 47.07040 36913 ft 471 kts 351°
2026-05-04 13:42 45.93982 47.04996 36915 ft 469 kts 337°
2026-05-04 13:42 45.96888 47.03042 36922 ft 467 kts 330°
2026-05-04 13:42 46.02588 46.98506 36916 ft 467 kts 329°
2026-05-04 13:43 46.08289 46.93981 36926 ft 468 kts 329°
2026-05-04 13:43 46.14025 46.89514 36922 ft 469 kts 330°
2026-05-04 13:44 46.19736 46.85072 36932 ft 469 kts 330°
2026-05-04 13:44 46.25610 46.80912 36933 ft 471 kts 333°
2026-05-04 13:45 46.31569 46.76971 36937 ft 471 kts 334°
2026-05-04 13:45 46.37526 46.73002 36932 ft 471 kts 333°
2026-05-04 13:46 46.43470 46.68981 36936 ft 471 kts 333°
2026-05-04 13:46 46.49399 46.64941 36939 ft 471 kts 333°
2026-05-04 13:47 46.55331 46.60888 36943 ft 470 kts 333°
2026-05-04 13:47 46.61216 46.56858 36946 ft 470 kts 333°
2026-05-04 13:48 46.67132 46.52799 36948 ft 470 kts 333°
2026-05-04 13:48 46.73034 46.48740 36949 ft 469 kts 333°
2026-05-04 13:49 46.78942 46.44667 36955 ft 469 kts 333°
2026-05-04 13:49 46.84838 46.40591 36958 ft 468 kts 333°
2026-05-04 13:50 46.90690 46.36537 36963 ft 468 kts 333°
2026-05-04 13:50 46.96562 46.32458 36960 ft 467 kts 333°
2026-05-04 13:51 47.02436 46.28369 36969 ft 466 kts 333°
2026-05-04 13:51 47.08286 46.24284 36973 ft 465 kts 332°
2026-05-04 13:52 47.14152 46.20172 36497 ft 471 kts 332°
2026-05-04 13:52 47.17102 46.18100 35978 ft 469 kts 332°
2026-05-04 13:52 47.20039 46.16035 35365 ft 469 kts 332°
2026-05-04 13:53 47.22983 46.13962 34772 ft 468 kts 332°
2026-05-04 13:53 47.25913 46.11898 34346 ft 464 kts 332°
2026-05-04 13:53 47.28781 46.09875 33882 ft 461 kts 332°
2026-05-04 13:54 47.34521 46.05816 32906 ft 454 kts 332°
2026-05-04 13:54 47.37357 46.03809 32455 ft 450 kts 332°
2026-05-04 13:54 47.42871 45.99904 31523 ft 445 kts 332°
2026-05-04 13:55 47.45599 45.97975 31100 ft 441 kts 332°
2026-05-04 13:55 47.51107 45.94075 30248 ft 435 kts 332°
2026-05-04 13:55 47.53827 45.92144 29793 ft 432 kts 332°
2026-05-04 13:56 47.56530 45.90223 29317 ft 428 kts 332°
2026-05-04 13:56 47.59203 45.88321 28890 ft 424 kts 332°
2026-05-04 13:56 47.64470 45.84565 28029 ft 416 kts 332°
2026-05-04 13:57 47.67065 45.82711 27630 ft 411 kts 332°
2026-05-04 13:57 47.69623 45.80883 27386 ft 404 kts 332°
2026-05-04 13:58 47.77159 45.75479 26546 ft 402 kts 332°
2026-05-04 13:58 47.82158 45.71887 25741 ft 395 kts 332°
2026-05-04 13:58 47.84626 45.70111 25326 ft 393 kts 332°
2026-05-04 13:59 47.87078 45.68344 24904 ft 391 kts 332°
2026-05-04 13:59 47.89524 45.66579 24456 ft 389 kts 332°
2026-05-04 13:59 47.94382 45.63070 23591 ft 386 kts 332°
2026-05-04 14:00 47.96798 45.61321 23090 ft 385 kts 332°
2026-05-04 14:00 48.01580 45.57857 22186 ft 379 kts 332°
2026-05-04 14:00 48.03941 45.56143 21754 ft 376 kts 332°
2026-05-04 14:01 48.06282 45.54442 21325 ft 373 kts 332°
2026-05-04 14:01 48.08579 45.52772 20905 ft 370 kts 332°
2026-05-04 14:01 48.13177 45.49423 20073 ft 365 kts 332°
2026-05-04 14:02 48.15458 45.47759 19666 ft 362 kts 332°
2026-05-04 14:02 48.17719 45.46108 19251 ft 360 kts 332°
2026-05-04 14:02 48.19968 45.44464 18840 ft 358 kts 332°
2026-05-04 14:02 48.22202 45.42829 18436 ft 356 kts 332°
2026-05-04 14:03 48.24425 45.41201 17986 ft 355 kts 332°
2026-05-04 14:03 48.26638 45.39578 17557 ft 352 kts 332°
2026-05-04 14:03 48.28829 45.37970 17149 ft 349 kts 332°
2026-05-04 14:03 48.30998 45.36378 16758 ft 345 kts 333°
2026-05-04 14:04 48.35271 45.33234 16019 ft 339 kts 333°
2026-05-04 14:04 48.37356 45.31614 15649 ft 335 kts 326°
2026-05-04 14:04 48.38996 45.29214 15283 ft 333 kts 304°
2026-05-04 14:05 48.40235 45.22637 14591 ft 331 kts 272°
2026-05-04 14:05 48.40216 45.19172 14225 ft 331 kts 270°
2026-05-04 14:05 48.40153 45.15719 13867 ft 330 kts 270°
2026-05-04 14:06 48.40086 45.12263 13462 ft 330 kts 270°
2026-05-04 14:06 48.40026 45.08813 13076 ft 329 kts 270°
2026-05-04 14:06 48.39974 45.05390 12706 ft 327 kts 270°
2026-05-04 14:06 48.39928 45.02013 12352 ft 325 kts 270°
2026-05-04 14:07 48.39884 44.98615 12001 ft 324 kts 270°
2026-05-04 14:07 48.39841 44.95239 11645 ft 322 kts 270°
2026-05-04 14:07 48.39798 44.91872 11294 ft 321 kts 270°
2026-05-04 14:07 48.39755 44.88522 10951 ft 320 kts 270°
2026-05-04 14:08 48.39712 44.85178 10606 ft 319 kts 270°
2026-05-04 14:08 48.39667 44.81866 10414 ft 312 kts 270°
2026-05-04 14:08 48.39626 44.78644 10265 ft 304 kts 272°
2026-05-04 14:08 48.40016 44.75591 10115 ft 293 kts 295°
2026-05-04 14:09 48.41946 44.70413 9688 ft 283 kts 303°
2026-05-04 14:09 48.42958 44.67872 9392 ft 282 kts 303°
2026-05-04 14:10 48.44955 44.62831 8818 ft 278 kts 303°
2026-05-04 14:10 48.45936 44.60334 8542 ft 276 kts 303°
2026-05-04 14:10 48.46909 44.57844 8269 ft 275 kts 303°
2026-05-04 14:10 48.47880 44.55353 7997 ft 274 kts 303°
2026-05-04 14:11 48.48843 44.52876 7725 ft 273 kts 303°
2026-05-04 14:11 48.50741 44.47980 7181 ft 272 kts 303°
2026-05-04 14:11 48.51695 44.45517 6906 ft 272 kts 303°
2026-05-04 14:12 48.52646 44.43055 6629 ft 271 kts 303°
2026-05-04 14:12 48.53596 44.40590 6354 ft 271 kts 303°
2026-05-04 14:12 48.55457 44.35759 5761 ft 259 kts 302°
2026-05-04 14:13 48.56345 44.33450 5499 ft 252 kts 303°
2026-05-04 14:13 48.57207 44.31204 5246 ft 246 kts 302°
2026-05-04 14:13 48.58055 44.28998 5002 ft 241 kts 302°
2026-05-04 14:13 48.58888 44.26829 4757 ft 236 kts 303°
2026-05-04 14:14 48.59711 44.24685 4511 ft 236 kts 302°
2026-05-04 14:14 48.61352 44.20408 4068 ft 237 kts 302°
2026-05-04 14:14 48.62309 44.18416 3955 ft 233 kts 324°
2026-05-04 14:15 48.65132 44.16183 3761 ft 228 kts 338°
2026-05-04 14:15 48.67943 44.14185 3537 ft 217 kts 337°
2026-05-04 14:16 48.70631 44.13532 3145 ft 187 kts 36°
2026-05-04 14:16 48.71548 44.14899 2947 ft 186 kts 45°
2026-05-04 14:17 48.73058 44.18035 2476 ft 186 kts 58°
2026-05-04 14:17 48.73671 44.19737 2208 ft 181 kts 64°
2026-05-04 14:17 48.74689 44.23001 1783 ft 164 kts 63°
2026-05-04 14:18 48.75176 44.24550 1511 ft 157 kts 64°
2026-05-04 14:18 48.76064 44.27360 1124 ft 146 kts 63°
2026-05-04 14:19 48.76929 44.30114 724 ft 146 kts 65°
2026-05-04 14:19 48.77375 44.31504 525 ft 148 kts 64°
2026-05-04 14:19 48.77822 44.32888 450 ft 139 kts 64°
2026-05-04 14:19 48.78074 44.33707 464 ft 117 kts 64°
2026-05-04 14:20 48.78361 44.34616 476 ft 74 kts 64°
2026-05-04 14:20 48.78512 44.35094 483 ft 25 kts 64°
2026-05-04 14:20 48.78551 44.35217 479 ft 6 kts 63°
2026-05-04 14:21 48.78623 44.35240 483 ft 6 kts 340°
2026-05-04 14:21 48.78661 44.35221 483 ft 6 kts 342°
2026-05-04 14:21 48.78699 44.35202 479 ft 6 kts 342°
2026-05-04 14:21 48.78736 44.35185 480 ft 6 kts 342°
2026-05-04 14:22 48.78773 44.35167 480 ft 5 kts 342°
2026-05-04 14:22 48.78809 44.35148 485 ft 5 kts 341°
2026-05-04 14:22 48.78844 44.35131 485 ft 5 kts 341°
2026-05-04 14:22 48.78879 44.35113 483 ft 5 kts 341°
2026-05-04 14:23 48.78931 44.35166 481 ft 4 kts 66°
2026-05-04 14:23 48.78942 44.35188 481 ft 3 kts 23°
2026-05-04 14:23 48.78962 44.35186 482 ft 3 kts 348°
2026-05-04 14:24 48.78980 44.35178 483 ft 3 kts 341°
2026-05-04 14:24 48.78993 44.35171 481 ft 1 kts 340°
2026-05-04 14:24 48.78994 44.35170 481 ft 0 kts 340°